Terminal Aerodrome Forecast
Issued by NWS Louisville, KY

Home | Current Version | Previous Version | Text Only | Print | Product List | Glossary On
Versions: 1 2 3 4 5 6 7 8 9 10 11 12 13 14 15 16 17 18
000
FTUS43 KLMK 270600 AAA
TAFLEX
TAF AMD
KLEX 270606Z 2706/2806 VRB03KT 6SM -SN OVC016
     FM271100 03003KT P6SM OVC015
     FM271400 36007KT P6SM BKN040
     FM272200 36005KT P6SM SKC=

USA.gov is the U.S. government's official web portal to all federal, state and local government web resources and services.